Back to catalog

SL-8 DEB

AliveLEO
NORAD 27745·DEBRIS·🇷🇺 Russia

Launched Feb 12, 1991 from Plesetsk Cosmodrome

Loading…

Next Passes (next 24 hours)

TLE

FreshSource: Space-Track

Epoch: Sep 13, 2026, 15:11 UTC

1 27745U 91009DA  26256.63278663  .00000037  00000-0  43019-3 0  9996
2 27745  73.9265 341.0360 0144242 277.7840 193.5914 12.30837775359112

Track SL-8 DEB in real time with AllMySat

Download on the App Store